| time (UTC) | temp F | wind direction | speed MPH | gust MPH | rain 1hr in | rain 24hr in | rain mn in | humidity % | barometer mb |
| 20260831015421 | 0 | 357 | 0.0 | 0.0 | 0.00 | 0.00 | 0.10 | ||
| 20260831014631 | 67 | 357 | 0.0 | 0.0 | 0.00 | 0.00 | 0.10 | 90 | 1019.5 |
| 20260831013951 | 67 | 358 | 0.0 | 0.0 | 0.00 | 0.00 | 0.10 | 91 | 1019.6 |
| 20260831013312 | 67 | 355 | 0.0 | 0.0 | 0.00 | 0.00 | 0.10 | 91 | 1019.6 |
| 20260831012630 | 67 | 355 | 0.0 | 0.0 | 0.00 | 0.00 | 0.10 | 91 | 1019.4 |
| 20260831011951 | 67 | 357 | 0.0 | 0.0 | 0.00 | 0.00 | 0.10 | 91 | 1019.4 |
| 20260831011312 | 0 | 357 | 0.0 | 0.0 | 0.00 | 0.00 | 0.09 | ||
| 20260831010411 | 0 | 354 | 0.0 | 0.0 | 0.00 | 0.00 | 0.09 | ||
| 20260831005623 | 66 | 354 | 0.0 | 0.0 | 0.00 | 0.00 | 0.09 | 91 | 1019.3 |
| 20260831004943 | 67 | 356 | 0.0 | 0.0 | 0.00 | 0.00 | 0.09 | 91 | 1019.3 |
| 20260831004304 | 0 | 357 | 0.0 | 0.0 | 0.00 | 0.00 | 0.08 | ||
| 20260831003512 | 66 | 356 | 0.0 | 0.0 | 0.00 | 0.00 | 0.08 | 91 | 1019.2 |
| 20260831002831 | 66 | 356 | 0.0 | 0.0 | 0.00 | 0.00 | 0.08 | 91 | 1019.0 |
| 20260831002151 | 66 | 358 | 0.0 | 0.0 | 0.00 | 0.00 | 0.08 | 91 | 1019.0 |
| 20260831001512 | 66 | 355 | 0.0 | 0.0 | 0.00 | 0.00 | 0.08 | 90 | 1018.9 |
| 20260831000832 | 0 | 355 | 0.0 | 0.0 | 0.00 | 0.00 | 0.08 | ||
| 20260830235824 | 0 | 357 | 0.0 | 0.0 | 0.00 | 0.00 | 0.08 | ||
| 20260830235035 | 66 | 357 | 0.0 | 0.0 | 0.00 | 0.00 | 0.08 | 90 | 1018.8 |
| 20260830234355 | 66 | 360 | 0.0 | 0.0 | 0.00 | 0.00 | 0.08 | 90 | 1018.8 |
| 20260830233716 | 66 | 360 | 0.0 | 0.0 | 0.00 | 0.00 | 0.08 | 89 | 1018.8 |
| 20260830232926 | 66 | 356 | 0.0 | 0.0 | 0.00 | 0.00 | 0.08 | 89 | 1018.7 |
| 20260830232245 | 66 | 355 | 0.0 | 0.0 | 0.00 | 0.00 | 0.08 | 88 | 1018.7 |
| 20260830231605 | 66 | 354 | 0.0 | 0.0 | 0.00 | 0.00 | 0.08 | 88 | 1018.7 |
| 20260830230925 | 66 | 358 | 0.0 | 0.0 | 0.00 | 0.00 | 0.08 | 88 | 1018.6 |
| 20260830230246 | 66 | 358 | 0.0 | 0.0 | 0.00 | 0.00 | 0.08 | 87 | 1018.7 |
| 20260830225605 | 66 | 357 | 0.0 | 0.0 | 0.00 | 0.00 | 0.08 | 87 | 1018.7 |
| 20260830224925 | 66 | 354 | 0.0 | 0.0 | 0.00 | 0.00 | 0.08 | 86 | 1018.7 |
| 20260830224250 | 66 | 356 | 0.0 | 0.0 | 0.00 | 0.00 | 0.08 | 86 | 1018.8 |
| 20260830223611 | 66 | 356 | 0.0 | 0.0 | 0.00 | 0.00 | 0.07 | 85 | 1018.8 |
| 20260830222925 | 66 | 358 | 0.0 | 0.0 | 0.00 | 0.00 | 0.07 | 83 | 1018.8 |
| 20260830222217 | 67 | 356 | 0.0 | 0.0 | 0.00 | 0.00 | 0.07 | 82 | 1018.8 |
| 20260830221537 | 67 | 354 | 0.0 | 0.0 | 0.00 | 0.00 | 0.07 | 82 | 1018.8 |
| 20260830220858 | 0 | 355 | 0.0 | 0.0 | 0.00 | 0.00 | 0.07 | ||
| 20260830220111 | 67 | 355 | 0.0 | 0.0 | 0.00 | 0.00 | 0.07 | 81 | 1018.8 |
| 20260830215431 | 0 | 354 | 0.0 | 0.0 | 0.00 | 0.00 | 0.07 | ||
| 20260830214410 | 0 | 351 | 0.0 | 0.0 | 0.00 | 0.00 | 0.07 | ||
| 20260830213705 | 68 | 354 | 0.0 | 0.0 | 0.00 | 0.00 | 0.07 | 78 | 1018.8 |
| 20260830213024 | 68 | 356 | 0.0 | 0.0 | 0.00 | 0.00 | 0.07 | 78 | 1018.7 |
| 20260830212344 | 0 | 351 | 0.0 | 0.0 | 0.00 | 0.00 | 0.07 | ||
| 20260830211551 | 68 | 352 | 0.0 | 0.0 | 0.00 | 0.00 | 0.07 | 78 | 1018.7 |
| 20260830210912 | 0 | 359 | 0.0 | 0.0 | 0.00 | 0.00 | 0.07 | ||
| 20260830210011 | 69 | 356 | 0.0 | 0.0 | 0.00 | 0.00 | 0.07 | 73 | 1018.9 |
| 20260830205335 | 68 | 355 | 0.0 | 0.0 | 0.00 | 0.00 | 0.07 | 73 | 1018.9 |
| 20260830204650 | 69 | 354 | 0.0 | 0.0 | 0.00 | 0.00 | 0.07 | 73 | 1018.9 |
| 20260830204011 | 0 | 355 | 0.0 | 0.0 | 0.00 | 0.00 | 0.07 | ||
| 20260830203223 | 0 | 354 | 0.0 | 0.0 | 0.00 | 0.00 | 0.07 | ||
| 20260830202321 | 69 | 356 | 0.0 | 0.0 | 0.00 | 0.00 | 0.07 | 75 | 1018.9 |
| 20260830201641 | 69 | 356 | 0.0 | 4.0 | 0.00 | 0.00 | 0.07 | 77 | 1018.9 |
| 20260830201002 | 0 | 354 | 0.0 | 4.0 | 0.00 | 0.00 | 0.07 | ||
| 20260830200213 | 0 | 356 | 0.0 | 0.0 | 0.00 | 0.00 | 0.07 | ||
| 20260830195424 | 70 | 358 | 0.0 | 4.0 | 0.00 | 0.00 | 0.07 | 72 | 1019.1 |
| 20260830194749 | 0 | 352 | 0.0 | 0.0 | 0.00 | 0.00 | 0.07 | ||
| 20260830193954 | 71 | 353 | 0.0 | 0.0 | 0.00 | 0.00 | 0.07 | 68 | 1019.1 |
| 20260830193314 | 0 | 357 | 0.0 | 0.0 | 0.00 | 0.00 | 0.07 | ||
| 20260830192525 | 70 | 350 | 0.0 | 0.0 | 0.00 | 0.00 | 0.07 | 70 | 1019.3 |
| 20260830191737 | 0 | 355 | 0.0 | 0.0 | 0.00 | 0.00 | 0.07 | ||
| 20260830190947 | 71 | 356 | 0.0 | 0.0 | 0.00 | 0.00 | 0.07 | 72 | 1019.3 |
| 20260830190309 | 72 | 356 | 0.0 | 0.0 | 0.00 | 0.00 | 0.07 | 70 | 1019.2 |
| 20260830185627 | 72 | 353 | 0.0 | 0.0 | 0.00 | 0.00 | 0.07 | 70 | 1019.1 |
| 20260830184953 | 0 | 358 | 0.0 | 0.0 | 0.00 | 0.00 | 0.07 | ||
| 20260830184204 | 71 | 357 | 0.0 | 0.0 | 0.00 | 0.00 | 0.07 | 73 | 1019.5 |
| 20260830183520 | 0 | 355 | 0.0 | 0.0 | 0.00 | 0.00 | 0.07 | ||
| 20260830182727 | 71 | 359 | 0.0 | 0.0 | 0.00 | 0.00 | 0.07 | 75 | 1019.6 |
| 20260830182048 | 0 | 356 | 0.0 | 0.0 | 0.00 | 0.00 | 0.07 | ||
| 20260830181256 | 0 | 356 | 0.0 | 0.0 | 0.00 | 0.00 | 0.07 | ||
| 20260830180354 | 68 | 356 | 0.0 | 0.0 | 0.00 | 0.00 | 0.07 | 83 | 1019.8 |
| 20260830175714 | 0 | 356 | 0.0 | 0.0 | 0.00 | 0.00 | 0.07 | ||
| 20260830174810 | 0 | 354 | 0.0 | 0.0 | 0.00 | 0.00 | 0.07 | ||
| 20260830174021 | 68 | 354 | 0.0 | 0.0 | 0.00 | 0.00 | 0.07 | 85 | 1019.7 |
| 20260830173340 | 68 | 354 | 0.0 | 0.0 | 0.00 | 0.00 | 0.07 | 85 | 1019.6 |
| 20260830172701 | 68 | 351 | 0.0 | 3.0 | 0.00 | 0.00 | 0.07 | 85 | 1019.6 |
| 20260830172021 | 0 | 355 | 0.0 | 3.0 | 0.00 | 0.00 | 0.07 | ||
| 20260830171232 | 68 | 355 | 0.0 | 0.0 | 0.00 | 0.00 | 0.07 | 85 | 1019.5 |
| 20260830170554 | 0 | 359 | 0.0 | 0.0 | 0.00 | 0.00 | 0.07 | ||
| 20260830165805 | 68 | 355 | 0.0 | 2.0 | 0.00 | 0.00 | 0.07 | 85 | 1019.4 |
| 20260830165123 | 0 | 360 | 0.0 | 2.0 | 0.00 | 0.00 | 0.07 | ||
| 20260830164334 | 69 | 355 | 0.0 | 2.0 | 0.00 | 0.00 | 0.07 | 83 | 1019.5 |
| 20260830163654 | 69 | 355 | 0.0 | 0.0 | 0.00 | 0.00 | 0.07 | 82 | 1019.4 |
| 20260830163016 | 70 | 358 | 0.0 | 0.0 | 0.00 | 0.00 | 0.07 | 82 | 1019.5 |
| 20260830162230 | 69 | 357 | 0.0 | 0.0 | 0.00 | 0.00 | 0.07 | 82 | 1019.6 |
| 20260830161544 | 69 | 355 | 0.0 | 0.0 | 0.00 | 0.00 | 0.07 | 82 | 1019.6 |
| 20260830160905 | 70 | 358 | 0.0 | 0.0 | 0.00 | 0.00 | 0.07 | 84 | 1019.7 |
| 20260830160225 | 68 | 358 | 0.0 | 0.0 | 0.00 | 0.00 | 0.07 | 85 | 1019.8 |
| 20260830155545 | 68 | 357 | 0.0 | 0.0 | 0.00 | 0.00 | 0.06 | 86 | 1020.1 |
| 20260830154534 | 0 | 355 | 0.0 | 0.0 | 0.00 | 0.00 | 0.06 | ||
| 20260830153409 | 66 | 356 | 0.0 | 5.0 | 0.00 | 0.00 | 0.06 | 88 | 1020.2 |
| 20260830152729 | 66 | 358 | 0.0 | 10.0 | 0.00 | 0.00 | 0.04 | 87 | 1020.2 |
| 20260830152049 | 67 | 353 | 4.0 | 10.0 | 0.00 | 0.00 | 0.02 | 85 | 1020.1 |
| 20260830151425 | 0 | 359 | 0.0 | 4.0 | 0.00 | 0.00 | 0.00 | ||
| 20260830150622 | 0 | 0 | 2.0 | 2.0 | 0.00 | 0.00 | 0.00 | ||
| 20260830145829 | 70 | 354 | 0.0 | 6.0 | 0.00 | 0.00 | 0.00 | 62 | 1019.6 |
| 20260830145149 | 70 | 356 | 0.0 | 0.0 | 0.00 | 0.00 | 0.00 | 61 | 1019.6 |
| 20260830144509 | 70 | 356 | 0.0 | 3.0 | 0.00 | 0.00 | 0.00 | 60 | 1019.6 |
| 20260830143829 | 70 | 356 | 1.0 | 3.0 | 0.00 | 0.00 | 0.00 | 60 | 1019.3 |
| 20260830143149 | 70 | 355 | 0.0 | 0.0 | 0.00 | 0.00 | 0.00 | 61 | 1019.3 |
| 20260830142509 | 70 | 355 | 0.0 | 0.0 | 0.00 | 0.00 | 0.00 | 61 | 1019.0 |
| 20260830141831 | 70 | 354 | 0.0 | 4.0 | 0.00 | 0.00 | 0.00 | 60 | 1018.9 |
| 20260830141150 | 0 | 355 | 1.0 | 3.0 | 0.00 | 0.00 | 0.00 | ||
| 20260830140134 | 71 | 355 | 0.0 | 0.0 | 0.00 | 0.00 | 0.00 | 58 | 1018.9 |
| 20260830135454 | 70 | 355 | 0.0 | 0.0 | 0.00 | 0.00 | 0.00 | 59 | 1019.0 |
| 20260830134814 | 70 | 355 | 0.0 | 0.0 | 0.00 | 0.00 | 0.00 | 59 | 1018.9 |
| 20260830134139 | 70 | 356 | 0.0 | 0.0 | 0.00 | 0.00 | 0.00 | 58 | 1018.9 |
| 20260830133453 | 70 | 355 | 0.0 | 0.0 | 0.00 | 0.00 | 0.00 | 59 | 1018.9 |
| 20260830132815 | 0 | 354 | 0.0 | 0.0 | 0.00 | 0.00 | 0.00 | ||
| 20260830131910 | 70 | 358 | 0.0 | 0.0 | 0.00 | 0.00 | 0.00 | 60 | 1019.0 |
| 20260830131230 | 0 | 354 | 0.0 | 5.0 | 0.00 | 0.00 | 0.00 | ||
| 20260830130439 | 0 | 355 | 2.0 | 7.0 | 0.00 | 0.00 | 0.00 | ||
| 20260830125535 | 69 | 356 | 0.0 | 0.0 | 0.00 | 0.00 | 0.00 | 60 | 1018.8 |
| 20260830124855 | 70 | 355 | 0.0 | 0.0 | 0.00 | 0.00 | 0.00 | 59 | 1018.9 |
| 20260830124215 | 70 | 353 | 0.0 | 0.0 | 0.00 | 0.00 | 0.00 | 59 | 1018.9 |
| 20260830123536 | 70 | 353 | 0.0 | 0.0 | 0.00 | 0.00 | 0.00 | 61 | 1018.9 |
| 20260830122855 | 69 | 353 | 0.0 | 0.0 | 0.00 | 0.00 | 0.00 | 59 | 1018.9 |
| 20260830122215 | 69 | 356 | 0.0 | 0.0 | 0.00 | 0.00 | 0.00 | 59 | 1018.8 |
| 20260830121426 | 69 | 355 | 0.0 | 0.0 | 0.00 | 0.00 | 0.00 | 56 | 1018.9 |
| 20260830120746 | 0 | 356 | 0.0 | 0.0 | 0.00 | 0.00 | 0.00 | ||
| 20260830115955 | 69 | 357 | 0.0 | 0.0 | 0.00 | 0.00 | 0.00 | 57 | 1018.7 |
| 20260830115315 | 69 | 356 | 0.0 | 0.0 | 0.00 | 0.00 | 0.00 | 56 | 1018.6 |
| 20260830114637 | 0 | 0 | 0.0 | 0.0 | 0.00 | 0.00 | 0.00 | ||
| 20260830113846 | 69 | 356 | 0.0 | 0.0 | 0.00 | 0.00 | 0.00 | 59 | 1018.7 |
| 20260830113205 | 68 | 355 | 0.0 | 0.0 | 0.00 | 0.00 | 0.00 | 59 | 1018.7 |
| 20260830112526 | 68 | 355 | 0.0 | 0.0 | 0.00 | 0.00 | 0.00 | 60 | 1018.7 |
| 20260830111845 | 68 | 355 | 0.0 | 0.0 | 0.00 | 0.00 | 0.00 | 60 | 1018.7 |
| 20260830111205 | 68 | 357 | 0.0 | 0.0 | 0.00 | 0.00 | 0.00 | 60 | 1018.8 |
| 20260830110525 | 68 | 356 | 0.0 | 0.0 | 0.00 | 0.00 | 0.00 | 59 | 1018.8 |
| 20260830105845 | 68 | 356 | 0.0 | 0.0 | 0.00 | 0.00 | 0.00 | 59 | 1018.9 |
| 20260830105205 | 68 | 355 | 0.0 | 0.0 | 0.00 | 0.00 | 0.00 | 58 | 1018.9 |
| 20260830104525 | 68 | 357 | 0.0 | 0.0 | 0.00 | 0.00 | 0.00 | 58 | 1018.9 |
| 20260830103737 | 0 | 360 | 0.0 | 0.0 | 0.00 | 0.00 | 0.00 | ||
| 20260830102946 | 68 | 356 | 0.0 | 0.0 | 0.00 | 0.00 | 0.00 | 59 | 1018.9 |
| 20260830102049 | 0 | 356 | 0.0 | 0.0 | 0.00 | 0.00 | 0.00 | ||
| 20260830101230 | 68 | 356 | 0.0 | 0.0 | 0.00 | 0.00 | 0.00 | 58 | 1018.9 |
| 20260830100550 | 0 | 356 | 0.0 | 0.0 | 0.00 | 0.00 | 0.00 | ||
| 20260830095802 | 0 | 355 | 0.0 | 0.0 | 0.00 | 0.00 | 0.00 | ||
| 20260830095013 | 68 | 357 | 0.0 | 0.0 | 0.00 | 0.00 | 0.00 | 57 | 1018.9 |
| 20260830094333 | 0 | 356 | 0.0 | 0.0 | 0.00 | 0.00 | 0.00 | ||
| 20260830093433 | 0 | 356 | 0.0 | 0.0 | 0.00 | 0.00 | 0.00 | ||
| 20260830092645 | 68 | 0 | 0.0 | 6.0 | 0.00 | 0.00 | 0.00 | 59 | 1018.9 |
| 20260830091856 | 68 | 353 | 0.0 | 0.0 | 0.00 | 0.00 | 0.00 | 58 | 1018.8 |
| 20260830091216 | 69 | 356 | 0.0 | 0.0 | 0.00 | 0.00 | 0.00 | 56 | 1018.9 |
| 20260830090537 | 68 | 356 | 0.0 | 0.0 | 0.00 | 0.00 | 0.00 | 56 | 1018.9 |
| 20260830085856 | 68 | 357 | 0.0 | 0.0 | 0.00 | 0.00 | 0.00 | 56 | 1019.0 |
| 20260830085217 | 68 | 355 | 0.0 | 0.0 | 0.00 | 0.00 | 0.00 | 56 | 1019.0 |
| 20260830084536 | 68 | 357 | 0.0 | 0.0 | 0.00 | 0.00 | 0.00 | 55 | 1019.1 |
| 20260830083856 | 69 | 359 | 0.0 | 0.0 | 0.00 | 0.00 | 0.00 | 56 | 1019.2 |
| 20260830083217 | 0 | 352 | 0.0 | 0.0 | 0.00 | 0.00 | 0.00 | ||
| 20260830082317 | 0 | 359 | 0.0 | 0.0 | 0.00 | 0.00 | 0.00 | ||
| 20260830081528 | 70 | 357 | 0.0 | 0.0 | 0.00 | 0.00 | 0.00 | 56 | 1019.3 |
| 20260830080848 | 0 | 356 | 0.0 | 0.0 | 0.00 | 0.00 | 0.00 | ||
| 20260830075950 | 70 | 357 | 0.0 | 4.0 | 0.00 | 0.00 | 0.00 | 54 | 1019.4 |
| 20260830075311 | 70 | 358 | 0.0 | 5.0 | 0.00 | 0.00 | 0.00 | 54 | 1019.5 |
| 20260830074630 | 70 | 353 | 0.0 | 3.0 | 0.00 | 0.00 | 0.00 | 53 | 1019.5 |
| 20260830073950 | 70 | 355 | 0.0 | 0.0 | 0.00 | 0.00 | 0.00 | 52 | 1019.4 |
| 20260830073310 | 70 | 357 | 0.0 | 0.0 | 0.00 | 0.00 | 0.00 | 51 | 1019.4 |
| 20260830072630 | 70 | 356 | 0.0 | 9.0 | 0.00 | 0.00 | 0.00 | 51 | 1019.3 |
| 20260830071950 | 70 | 355 | 4.0 | 9.0 | 0.00 | 0.00 | 0.00 | 52 | 1019.3 |
| 20260830071311 | 70 | 357 | 4.0 | 10.0 | 0.00 | 0.00 | 0.00 | 51 | 1019.2 |
| 20260830070630 | 70 | 357 | 5.0 | 11.0 | 0.00 | 0.00 | 0.00 | 52 | 1019.1 |
| 20260830065950 | 70 | 355 | 7.0 | 11.0 | 0.00 | 0.00 | 0.00 | 52 | 1019.1 |
| 20260830065310 | 0 | 353 | 6.0 | 6.0 | 0.00 | 0.00 | 0.00 | ||
| 20260830064521 | 70 | 355 | 7.0 | 10.0 | 0.00 | 0.00 | 0.00 | 51 | 1019.3 |
| 20260830063841 | 0 | 355 | 6.0 | 7.0 | 0.00 | 0.00 | 0.00 | ||
| 20260830063050 | 70 | 355 | 5.0 | 11.0 | 0.00 | 0.00 | 0.00 | 52 | 1019.3 |
| 20260830062410 | 70 | 354 | 6.0 | 11.0 | 0.00 | 0.00 | 0.00 | 51 | 1019.2 |
| 20260830061731 | 0 | 356 | 7.0 | 4.0 | 0.00 | 0.00 | 0.00 | ||
| 20260830060944 | 0 | 352 | 5.0 | 4.0 | 0.00 | 0.00 | 0.00 | ||
| 20260830060152 | 70 | 354 | 6.0 | 10.0 | 0.00 | 0.00 | 0.00 | 52 | 1019.5 |
| 20260830055513 | 0 | 357 | 3.0 | 10.0 | 0.00 | 0.00 | 0.00 | ||
| 20260830054614 | 70 | 356 | 6.0 | 10.0 | 0.00 | 0.00 | 0.00 | 52 | 1019.6 |
| 20260830053935 | 70 | 353 | 5.0 | 10.0 | 0.00 | 0.00 | 0.00 | 52 | 1019.6 |
| 20260830053254 | 70 | 357 | 2.0 | 6.0 | 0.00 | 0.00 | 0.00 | 53 | 1019.6 |
| 20260830052614 | 70 | 355 | 1.0 | 7.0 | 0.00 | 0.00 | 0.00 | 54 | 1019.6 |
| 20260830051936 | 70 | 355 | 2.0 | 7.0 | 0.00 | 0.00 | 0.00 | 54 | 1019.5 |
| 20260830051254 | 70 | 356 | 0.0 | 7.0 | 0.00 | 0.00 | 0.00 | 55 | 1019.5 |
| 20260830050614 | 70 | 357 | 0.0 | 4.0 | 0.00 | 0.00 | 0.00 | 55 | 1019.7 |
| 20260830045934 | 70 | 355 | 0.0 | 3.0 | 0.00 | 0.00 | 0.00 | 55 | 1019.8 |
| 20260830045255 | 69 | 356 | 0.0 | 0.0 | 0.00 | 0.00 | 0.00 | 56 | 1019.8 |
| 20260830044507 | 0 | 353 | 0.0 | 0.0 | 0.00 | 0.00 | 0.00 | ||
| 20260830043716 | 69 | 356 | 0.0 | 0.0 | 0.00 | 0.00 | 0.00 | 57 | 1019.7 |
| 20260830043036 | 69 | 355 | 0.0 | 0.0 | 0.00 | 0.00 | 0.00 | 58 | 1019.6 |
| 20260830042358 | 0 | 354 | 0.0 | 0.0 | 0.00 | 0.00 | 0.00 | ||
| 20260830041454 | 69 | 356 | 0.0 | 0.0 | 0.00 | 0.00 | 0.00 | 57 | 1019.6 |
| 20260830040813 | 69 | 359 | 0.0 | 5.0 | 0.00 | 0.00 | 0.00 | 58 | 1019.5 |
| 20260830040134 | 70 | 355 | 1.0 | 5.0 | 0.00 | 0.00 | 0.00 | 58 | 1019.4 |
| 20260830035454 | 0 | 357 | 0.0 | 3.0 | 0.00 | 0.00 | 0.00 | ||
| 20260830034554 | 69 | 353 | 0.0 | 0.0 | 0.00 | 0.00 | 0.00 | 59 | 1019.5 |
| 20260830033914 | 0 | 356 | 0.0 | 0.0 | 0.00 | 0.00 | 0.00 | ||
| 20260830033124 | 69 | 355 | 0.0 | 0.0 | 0.00 | 0.00 | 0.00 | 59 | 1019.5 |
| 20260830032445 | 69 | 358 | 0.0 | 0.0 | 0.00 | 0.00 | 0.00 | 59 | 1019.4 |
| 20260830031656 | 69 | 353 | 0.0 | 0.0 | 0.00 | 0.00 | 0.00 | 59 | 1019.5 |
| 20260830031015 | 69 | 359 | 0.0 | 0.0 | 0.00 | 0.00 | 0.00 | 59 | 1019.5 |
| 20260830030335 | 70 | 356 | 0.0 | 0.0 | 0.00 | 0.00 | 0.00 | 56 | 1019.5 |
| 20260830025434 | 0 | 356 | 0.0 | 0.0 | 0.00 | 0.00 | 0.00 | ||
| 20260830024645 | 70 | 356 | 0.0 | 0.0 | 0.00 | 0.00 | 0.00 | 54 | 1019.6 |
| 20260830023854 | 0 | 351 | 0.0 | 0.0 | 0.00 | 0.00 | 0.00 | ||
| 20260830023105 | 70 | 356 | 0.0 | 0.0 | 0.00 | 0.00 | 0.00 | 52 | 1019.7 |
| 20260830022425 | 70 | 354 | 0.0 | 0.0 | 0.00 | 0.00 | 0.00 | 51 | 1019.8 |
| 20260830021745 | 70 | 355 | 0.0 | 0.0 | 0.00 | 0.00 | 0.00 | 51 | 1019.8 |
| 20260830021105 | 70 | 357 | 0.0 | 0.0 | 0.00 | 0.00 | 0.00 | 50 | 1019.7 |
| 20260830020425 | 70 | 360 | 0.0 | 0.0 | 0.00 | 0.00 | 0.00 | 50 | 1019.8 |